Preview of NWS' New Version of Forecast
This preview is not operational and should not be used for support decisions.
Latest weather observations around

Ogden-Hinckley Airport (KOGD)

Using English Units (Switch to International System of Units)
Date/ Time (MDT) Wind (mph) Vis. (mi) Weather Sky Cond. Temp (°F) Rel. Humidity Wind Chill (°F) Heat Index (°F) Pressure Precip. (in)
Air Dwpt 6 hour Altimeter (inHg) Sea level (inHg) 1 hr 3 hr 6 hr
Max Min
Aug 20 07:53 S 8 10 Clear CLR 66 30     26%     30.09 29.91      
Aug 20 06:53 S 11 10 Clear CLR 64 28     26%     30.08 29.89      
Aug 20 05:53 S 11 10 Clear CLR 65 28     25%     30.06 29.88      
Aug 20 04:53 S 10 10 Clear CLR 66 28     24%     30.05 29.86      
Aug 20 03:53 SSE 11 10 Clear CLR 67 27     22%     30.05 29.85      
Aug 20 02:53   10 Clear CLR 68 27     21%     30.04 29.84      
Aug 20 01:53 S 10 10 Clear CLR 69 28     21%     30.03 29.83      
Aug 20 00:53 S 9 10 Clear CLR 70 28     21%     30.02 29.82      
Aug 19 23:53 S 9 10 Clear   71 29     21%   69 30.01 29.82      
Aug 19 22:53 SSE 9 10 Clear CLR 72 28     19%   70 30.01 29.82      
Aug 19 21:53 S 7 10 Clear CLR 73 30     20%   71 30 29.82      
Aug 19 20:53 SSE 7 10 Clear CLR 77 35     22%   75 29.98 29.81      
Aug 19 19:53 Calm 10 Clear CLR 85 25     11%   82 29.98 29.79      
Aug 19 18:53 WNW 5 10 Clear CLR 90        %     29.99 29.8      
Aug 19 17:53 WNW 5 10 Clear CLR 91        %     30 29.8      
Aug 19 16:53 W 9 10 Clear CLR 92        %     30 29.8      
Aug 19 15:53 7 10 Clear CLR 92 22     8%   86 30.01 29.8      
Aug 19 14:53 S 13 10 Clear CLR 92 21     8%   86 30.03 29.83      
Aug 19 13:53 SW 10 10 Clear CLR 91 22     8%   86 30.05 29.85      
Aug 19 12:53   10 Clear CLR 89        %     30.06 29.86      
Aug 19 11:53 S 13 10 Clear CLR 87        %     30.06 29.87      
Aug 19 10:53   10 Clear CLR 85        %     30.06 29.86      
Aug 19 09:53 SSE 11 10 Clear CLR 80 35     20%   79 30.05 29.87      
Aug 19 08:53 SSE 9 10 Clear CLR 71 34     26%   69 30.05 29.88      
Aug 19 07:53 S 7 10 Clear CLR 68 32     26%     30.04 29.85      
Aug 19 06:53 SSE 10 10 Clear CLR 65 31     28%     30.02 29.84      
Aug 19 05:53 S 11 10 Clear CLR 66 30     26%     30.01 29.82      
Aug 19 04:53   10 Clear CLR 67 31     26%     29.99 29.8      
Aug 19 03:53   10 Clear CLR 68 31     25%     29.97 29.78      
Aug 19 02:53   10 Clear CLR 69 31     24%     29.96 29.77      
Aug 19 01:53 SSE 7 10 Clear CLR 69 34     27%     29.96 29.77      
Aug 19 00:53 SSE 11 10 Clear CLR 72 33     24%   70 29.94 29.75      
Aug 18 23:53 S 11 10 Clear CLR 73 34     24%   71 29.93 29.74      
Aug 18 22:53 S 8 10 Clear CLR 75 34     22%   73 29.92 29.74      
Aug 18 21:53 SSE 7 10 Clear CLR 76 37     24%   74 29.92 29.74      
Aug 18 20:53 ESE 5 10 Clear CLR 80 37     21%   79 29.91 29.74      
Aug 18 19:53 ENE 6 10 Clear CLR 87        %     29.91 29.74      
Aug 18 18:53 3 10 Clear CLR 89 30     12%   85 29.93 29.75      
Aug 18 17:53 3 10 Clear CLR 89        %     29.94 29.77      
Aug 18 16:53 N 6 10 Clear CLR 90 30     12%   86 29.96 29.77      
Aug 18 15:53 NNW 10 10 Clear CLR 91 29     11%   86 29.98 29.79      
Aug 18 14:53 WNW 5 10 Clear CLR 89 30     12%   85 30 29.82      
Aug 18 13:53 W 7 10 Clear CLR 86 31     14%   83 30.01 29.84      
Aug 18 12:53 WSW 6 10 Clear CLR 86 34     16%   83 30.02 29.84      
Aug 18 11:53 SW 5 10 Clear CLR 83 37     19%   80 30.03 29.85      
Aug 18 10:53 6 10 Clear CLR 78 37     23%   77 30.02 29.85      
Aug 18 09:53 S 3 10 Clear CLR 73 38     28%   71 30.02 29.85      
Aug 18 08:53 S 3 10 Clear CLR 67 37     33%     30.01 29.85      
Aug 18 07:53 S 6 10 Clear CLR 63 35     35%     29.99 29.82      
Aug 18 06:53 S 10 10 Clear CLR 60 34     37%     29.96 29.8      
Aug 18 05:53 S 8 10 Clear CLR 60 35     39%     29.95 29.78      
Aug 18 04:53 SSE 7 10 Clear CLR 62 35     36%     29.95 29.77      
Aug 18 03:53 WSW 3 10 Clear CLR 64 37     37%     29.94 29.76      
Aug 18 02:53 SW 5 10 Clear CLR 61 37     41%     29.91 29.75      
Aug 18 01:53 S 6 10 Clear CLR 63 35     35%     29.9 29.73      
Aug 18 00:53 S 7 10 Clear CLR 66 34     30%     29.9 29.73      
Aug 17 23:53 S 7 10 Clear CLR 67 35     31%     29.9 29.72      
Aug 17 22:53 Calm 10 Clear CLR 69 37     31%     29.89 29.72      
Aug 17 21:53 Calm 10 Clear CLR 73 35     25%   71 29.88 29.71      
Aug 17 20:53 E 3 10 Clear CLR 77 36     23%   75 29.86 29.69      
Aug 17 19:53 SE 6 10 Clear CLR 83        %     29.86 29.68      
Aug 17 18:53 WSW 5 10 Clear CLR 85 28     13%   82 29.87 29.7      
Aug 17 17:53 NW 6 10 Clear CLR 86 28     12%   83 29.89 29.71      
Aug 17 16:53 SW 7 10 Clear CLR 85 27     12%   82 29.91 29.73      
Aug 17 15:53 SW 10 10 Clear CLR 84        %     29.93 29.76      
Aug 17 14:53 7 10 Clear CLR 83        %     29.94 29.77      
Aug 17 13:53 W 7 10 Clear CLR 82 33     17%   80 29.95 29.78      
Aug 17 12:53 WNW 6 10 Clear CLR 81 34     18%   80 29.96 29.78      
Aug 17 11:53 Calm 10 Clear CLR 79 38     23%   78 29.97 29.8      
Aug 17 10:53 S 6 10 Clear CLR 76 42     30%   75 29.97 29.8      
Aug 17 09:53 3 10 Clear CLR 71 40     32%   69 29.97 29.8      
Aug 17 08:53 Calm 10 Clear CLR 68 41     37%     29.96 29.79      
Aug 17 07:53 S 7 10 Clear CLR 63 37     38%     29.95 29.78      
Aug 17 06:53 S 7 10 Clear CLR 61 37     41%     29.92 29.75      
May 15 07:53 NW 6 10 Clear CLR 53 45     74%     30.04 29.96      
May 14 19:53 SSE 13 10 Partly Cloudy SCT110 55 47     74%     30.08 30 0    
May 14 18:20 SSW 11 9 Light Rain BKN065 OVC080 55 43     64%     30.06   0    
May 13 16:53 N 7 10 Clear CLR 65 35     33%     29.94 29.85      
May 12 20:20 W 3 10 Mostly Clear FEW060 48 42     80% 47   29.94   0    
May 12 19:53 Calm 10 Light Rain SCT042 BKN070 BKN090 49 42     77%     29.93 29.88 0    
May 12 15:53 SW 7 10 Cloudy BKN019 OVC029 46 42     86% 42   29.91 29.86 0    
May 11 19:53 NNW 3 10 Cloudy FEW024 OVC036 50 41     71% 49   29.81 29.73      
May 11 13:04 N 10 10 Light Rain BKN010 OVC055 48 44     86% 43   29.79   0    
Jun 11 10:53 S 14 10 Clear CLR 76 39     26%   74 29.7 29.53      
Jun 10 13:53 N 14 10 Clear CLR 74 40     29%   72 29.73 29.59      
Jun 09 21:53 NNW 18 10 Clear CLR 60 43     53%     29.75 29.6      
Notice The following observation data may not be complete
Jun 09 10:53   10 Mostly Clear FEW100          %              
Jun 09 01:53 NW 9 10 Clear   63 41     45%     29.83 29.64      
Jun 05 23:53   10 Clear CLR 67 41     39%     30.02 29.85